User: anonymous   Login
Location: Dalton
(34.7700°N, 84.9700°W)
Time: 08:09:27
(UTC-05:00)
Language:

Hubble Space Telescope - Orbit

View from above orbital plane
View from above orbital plane
View from above satellite
View from above satellite

Ground track
Ground track

The orbit data is extracted from the following two-line orbital elements,

1 20580U 90037B   18052.71342531  .00000466  00000-0  17592-4 0  9990
2 20580  28.4690 158.4221 0002647 342.4744 137.8910 15.08982799328017
Epoch (UTC): 21 February 2018 17:07:19
Eccentricity: 0.0002647
inclination: 28.4690°
perigee height: 537 km
apogee height: 541 km
right ascension of ascending node: 158.4221°
argument of perigee: 342.4744°
revolutions per day: 15.08982799
mean anomaly at epoch: 137.8910°
orbit number at epoch: 32801

The dashed part of the orbit path shows where the satellite is in the earth's shadow,  

DLR